CAPE
2378 2507 2556 2694 3082 3240 3217 3336 3365 3279 2523 1969 2098 2253 2195 2347 2547 2149 1527 1694 1919 1759
1608 1902 2234 2815 3250 2971 3385 2988 3513 3268 2943 2421 2022 2669 2144 2350 1843 1988 1880 1590 2107 1721
433 762 1301 2191 2741 2903 2940 3253 3108 3158 2886 2448 2122 2230 1946 1888 1739 1658 1448 1351 1337 1808
517 629 752 1083 1949 2395 2628 2349 2277 2262 2316 2265 2121 1959 2216 1990 1906 1603 1239 1222 1119 1192
591 555 646 768 1101 1571 1713 1498 1745 1717 2072 1976 1741 1784 1892 1910 1728 1263 1003 732 795 799
52 114 349 554 582 601 1034 1425 1117 1146 1223 1308 1684 1541 1111 1159 978 772 629 415 434 413
0 0 0 0 0 37 192 253 435 420 475 594 564 589 622 578 412 405 431 254 286 168
0 0 0 0 0 1 0 0 0 2 19 41 68 119 147 149 152 199 243 218 299 88
0 0 0 0 0 0 0 0 2 5 0 5 4 0 0 0 17 47 61 87 140 228
0 0 0 0 0 1 0 0 0 0 0 0 0 0 0 0 0 0 2 4 48 77
0 0 0 0 0 0 0 0 0 0 0 0 0 0 0 0 0 0 0 0 1 29
0 0 0 0 0 0 0 0 0 0 0 0 0 0 0 0 0 0 0 0 0 0
0 0 0 0 0 0 0 0 0 0 0 0 0 0 0 0 0 0 0 0 0 2
0 0 0 0 0 0 0 0 0 0 0 0 0 0 0 0 0 0 0 0 0 0
CIN
-81 -70 -75 -62 -40 -26 -12 -2 -0 -19 -69 -91 -58 -40 -13 -2 -2 -17 -60 -39 -8 -2
-126 -102 -68 -27 -11 -22 -2 -7 -0 -15 -14 -39 -47 -6 -22 -17 -53 -30 -34 -41 -1 -0
-302 -241 -160 -53 -10 -2 -4 -0 -0 -0 -9 -16 -45 -27 -37 -53 -54 -47 -64 -51 -35 -3
-340 -304 -262 -164 -26 -1 -1 -9 -12 -9 -0 -5 -14 -22 -10 -21 -16 -32 -71 -61 -52 -25
-259 -245 -195 -139 -58 -12 -4 -25 -2 -3 -0 -0 -10 -14 -2 -3 -1 -12 -13 -51 -75 -30
-320 -364 -197 -107 -90 -59 -9 -1 -4 -6 -12 -9 -0 -0 -12 -0 -17 -3 -23 -33 -37 -15
-0 -0 -0 -0 -0 -70 -84 -65 -23 -42 -32 -15 -47 -14 -4 -3 -26 -6 -17 -23 -36 -47
-0 -0 -0 -0 -0 -14 -0 -0 -0 -17 -68 -56 -44 -62 -46 -29 -42 -21 -1 -0 -0 -18
-0 -0 -0 -0 -0 -0 -0 -0 -33 -29 -0 -26 -36 -0 -0 -0 -100 -74 -30 -30 -20 -2
-0 -0 -0 -0 -0 -21 -0 -0 -0 -0 -0 -0 -0 -0 -0 -0 -0 -0 -0 -36 -8 -17
-0 -0 -0 -0 -0 -0 -0 -0 -0 -0 -0 -0 -0 -0 -0 -0 -0 -0 -0 -0 -0 -7
-0 -0 -0 -0 -0 -0 -0 -0 -0 -0 -0 -0 -0 -0 -0 -0 -0 -0 -0 -0 -0 -0
-0 -0 -0 -0 -0 -0 -0 -0 -0 -0 -0 -0 -0 -0 -0 -0 -0 -0 -0 -0 -0 -0
-0 -0 -0 -0 -0 -0 -0 -0 -0 -0 -0 -0 -0 -0 -0 -0 -0 -0 -0 -0 -0 -0
Wind_Speed
28 32 35 37 42 46 50 52 52 60 58 57 54 53 53 53 52 52 54 52 52 55
28 27 29 31 36 42 43 45 46 57 54 55 56 56 55 53 54 55 52 49 50 49
35 34 33 35 39 44 47 51 50 50 58 60 56 55 54 54 50 53 51 50 49 49
44 44 42 42 43 45 47 49 52 50 51 51 56 53 48 46 47 48 47 50 52 49
51 50 52 50 50 52 47 52 53 50 47 50 54 54 49 44 50 50 45 51 54 52
nan 62 60 60 57 55 54 50 47 50 50 48 50 55 52 49 52 45 48 60 57 52
nan nan nan nan nan nan 50 50 48 47 49 49 49 58 56 51 60 53 53 47 53 49
nan nan nan nan nan nan nan nan nan nan nan nan nan 53 66 55 62 52 56 50 55 nan
nan nan nan nan nan nan nan nan nan nan nan nan nan nan nan nan nan nan nan nan 56 53
nan nan nan nan nan nan nan nan nan nan nan nan nan nan nan nan nan nan nan nan nan nan
nan nan nan nan nan nan nan nan nan nan nan nan nan nan nan nan nan nan nan nan nan nan
nan nan nan nan nan nan nan nan nan nan nan nan nan nan nan nan nan nan nan nan nan nan
nan nan nan nan nan nan nan nan nan nan nan nan nan nan nan nan nan nan nan nan nan nan
nan nan nan nan nan nan nan nan nan nan nan nan nan nan nan nan nan nan nan nan nan nan
Wind_Direction
295 291 290 289 286 284 285 286 288 293 294 294 291 287 289 288 291 292 296 301 298 297
283 281 281 282 282 283 284 286 287 290 293 290 289 290 287 286 290 292 296 298 298 298
272 275 278 281 286 289 288 283 282 283 288 292 291 288 290 291 292 293 290 289 291 294
271 272 275 278 281 286 282 275 279 280 280 283 288 287 289 291 290 289 292 288 290 291
270 274 276 273 273 279 286 284 282 282 274 276 283 285 284 276 278 282 284 290 291 289
nan 274 276 277 277 281 278 271 270 270 275 275 274 277 277 281 274 279 278 277 288 293
nan nan nan nan nan nan 277 271 269 266 262 263 266 270 269 280 280 286 288 293 292 299
nan nan nan nan nan nan nan nan nan nan nan nan nan 263 266 272 282 287 289 288 289 nan
nan nan nan nan nan nan nan nan nan nan nan nan nan nan nan nan nan nan nan nan 283 286
nan nan nan nan nan nan nan nan nan nan nan nan nan nan nan nan nan nan nan nan nan nan
nan nan nan nan nan nan nan nan nan nan nan nan nan nan nan nan nan nan nan nan nan nan
nan nan nan nan nan nan nan nan nan nan nan nan nan nan nan nan nan nan nan nan nan nan
nan nan nan nan nan nan nan nan nan nan nan nan nan nan nan nan nan nan nan nan nan nan
nan nan nan nan nan nan nan nan nan nan nan nan nan nan nan nan nan nan nan nan nan nan